| time (UTC) | temp F | wind direction | speed MPH | gust MPH | rain 1hr in | rain 24hr in | rain mn in | humidity % | barometer mb |
| 20260906194556 | 54 | 360 | 9.0 | 17.0 | 0.13 | 0.44 | 0.38 | 88 | 1021.5 |
| 20260906194042 | 54 | 360 | 8.0 | 13.0 | 0.15 | 0.44 | 0.38 | 88 | 1021.9 |
| 20260906193541 | 54 | 360 | 7.0 | 13.0 | 0.17 | 0.44 | 0.38 | 88 | 1022.1 |
| 20260906193101 | 54 | 360 | 7.0 | 13.0 | 0.18 | 0.42 | 0.37 | 87 | 1021.9 |
| 20260906192541 | 54 | 360 | 7.0 | 12.0 | 0.18 | 0.40 | 0.35 | 87 | 1022.1 |
| 20260906192043 | 54 | 360 | 8.0 | 12.0 | 0.18 | 0.39 | 0.33 | 87 | 1022.1 |
| 20260906191601 | 54 | 360 | 7.0 | 16.0 | 0.18 | 0.37 | 0.32 | 87 | 1022.0 |
| 20260906191041 | 54 | 360 | 8.0 | 16.0 | 0.18 | 0.36 | 0.30 | 87 | 1022.3 |
| 20260906190542 | 54 | 360 | 7.0 | 13.0 | 0.18 | 0.34 | 0.29 | 87 | 1022.5 |
| 20260906190112 | 54 | 360 | 7.0 | 13.0 | 0.18 | 0.33 | 0.27 | 86 | 1022.5 |
| 20260906185543 | 54 | 360 | 3.0 | 8.0 | 0.19 | 0.32 | 0.26 | 86 | 1023.0 |
| 20260906185041 | 54 | 360 | 3.0 | 10.0 | 0.21 | 0.31 | 0.25 | 86 | 1023.2 |
| 20260906184556 | 54 | 360 | 4.0 | 10.0 | 0.24 | 0.30 | 0.25 | 86 | 1022.8 |
| 20260906184043 | 54 | 360 | 4.0 | 10.0 | 0.22 | 0.28 | 0.22 | 85 | 1022.7 |
| 20260906183542 | 54 | 360 | 4.0 | 10.0 | 0.21 | 0.26 | 0.21 | 85 | 1022.9 |
| 20260906183111 | 54 | 360 | 2.0 | 6.0 | 0.18 | 0.24 | 0.18 | 85 | 1023.0 |
| 20260906182542 | 54 | 360 | 1.0 | 6.0 | 0.16 | 0.22 | 0.16 | 84 | 1023.1 |
| 20260906182043 | 54 | 360 | 3.0 | 6.0 | 0.14 | 0.19 | 0.14 | 84 | 1022.9 |
| 20260906181600 | 54 | 360 | 1.0 | 5.0 | 0.13 | 0.18 | 0.13 | 84 | 1023.0 |
| 20260906181045 | 54 | 360 | 3.0 | 6.0 | 0.11 | 0.17 | 0.11 | 83 | 1023.2 |
| 20260906180542 | 54 | 360 | 2.0 | 9.0 | 0.10 | 0.15 | 0.10 | 83 | 1022.9 |
| 20260906180112 | 55 | 360 | 3.0 | 9.0 | 0.09 | 0.14 | 0.09 | 82 | 1022.4 |
| 20260906175539 | 55 | 360 | 3.0 | 9.0 | 0.07 | 0.12 | 0.07 | 81 | 1022.2 |
| 20260906175042 | 56 | 360 | 2.0 | 11.0 | 0.03 | 0.09 | 0.03 | 80 | 1022.3 |
| 20260906174602 | 56 | 360 | 4.0 | 11.0 | 0.00 | 0.06 | 0.00 | 79 | 1022.9 |
| 20260906174042 | 56 | 360 | 7.0 | 11.0 | 0.00 | 0.06 | 0.00 | 78 | 1023.3 |
| 20260906173545 | 57 | 360 | 1.0 | 10.0 | 0.00 | 0.05 | 0.00 | 76 | 1022.4 |
| 20260906173119 | 57 | 360 | 4.0 | 16.0 | 0.00 | 0.05 | 0.00 | 76 | 1021.1 |
| 20260906172542 | 57 | 360 | 7.0 | 16.0 | 0.00 | 0.05 | 0.00 | 76 | 1020.2 |
| 20260906172042 | 57 | 360 | 7.0 | 16.0 | 0.00 | 0.05 | 0.00 | 75 | 1019.9 |
| 20260906171601 | 57 | 360 | 8.0 | 16.0 | 0.00 | 0.05 | 0.00 | 75 | 1019.8 |
| 20260906171041 | 57 | 360 | 8.0 | 16.0 | 0.00 | 0.05 | 0.00 | 75 | 1019.7 |
| 20260906170542 | 57 | 360 | 9.0 | 16.0 | 0.00 | 0.05 | 0.00 | 75 | 1019.7 |
| 20260906170125 | 57 | 360 | 10.0 | 16.0 | 0.00 | 0.05 | 0.00 | 75 | 1019.9 |
| 20260906165542 | 57 | 360 | 9.0 | 20.0 | 0.00 | 0.05 | 0.00 | 75 | 1019.8 |
| 20260906165042 | 57 | 360 | 8.0 | 20.0 | 0.00 | 0.05 | 0.00 | 75 | 1019.9 |
| 20260906164632 | 57 | 360 | 7.0 | 17.0 | 0.00 | 0.05 | 0.00 | 74 | 1019.8 |
| 20260906164043 | 57 | 360 | 9.0 | 19.0 | 0.00 | 0.05 | 0.00 | 74 | 1019.8 |
| 20260906163541 | 57 | 360 | 10.0 | 19.0 | 0.00 | 0.05 | 0.00 | 73 | 1020.1 |
| 20260906163053 | 57 | 360 | 9.0 | 23.0 | 0.00 | 0.05 | 0.00 | 73 | 1020.1 |
| 20260906162541 | 57 | 360 | 9.0 | 23.0 | 0.00 | 0.05 | 0.00 | 73 | 1020.2 |
| 20260906162041 | 57 | 360 | 9.0 | 18.0 | 0.00 | 0.05 | 0.00 | 72 | 1020.0 |
| 20260906161558 | 57 | 360 | 11.0 | 17.0 | 0.00 | 0.05 | 0.00 | 72 | 1019.8 |
| 20260906161042 | 57 | 360 | 9.0 | 16.0 | 0.00 | 0.05 | 0.00 | 72 | 1019.9 |
| 20260906160541 | 57 | 360 | 9.0 | 18.0 | 0.00 | 0.05 | 0.00 | 72 | 1019.9 |
| 20260906160059 | 57 | 360 | 10.0 | 19.0 | 0.00 | 0.05 | 0.00 | 72 | 1019.9 |
| 20260906155541 | 57 | 360 | 10.0 | 19.0 | 0.00 | 0.05 | 0.05 | 72 | 1020.0 |
| 20260906155041 | 57 | 360 | 11.0 | 19.0 | 0.00 | 0.05 | 0.05 | 72 | 1020.2 |
| 20260906154606 | 57 | 360 | 10.0 | 18.0 | 0.00 | 0.05 | 0.05 | 72 | 1020.5 |
| 20260906154043 | 57 | 360 | 9.0 | 17.0 | 0.00 | 0.05 | 0.05 | 72 | 1020.5 |
| 20260906153541 | 57 | 360 | 9.0 | 17.0 | 0.00 | 0.05 | 0.05 | 72 | 1020.6 |
| 20260906153059 | 57 | 360 | 10.0 | 17.0 | 0.00 | 0.05 | 0.05 | 72 | 1020.4 |
| 20260906152540 | 57 | 360 | 11.0 | 17.0 | 0.00 | 0.05 | 0.05 | 72 | 1020.6 |
| 20260906152042 | 57 | 360 | 10.0 | 18.0 | 0.00 | 0.05 | 0.05 | 72 | 1020.7 |
| 20260906151612 | 57 | 360 | 10.0 | 19.0 | 0.00 | 0.05 | 0.05 | 72 | 1020.8 |
| 20260906151041 | 58 | 360 | 9.0 | 19.0 | 0.00 | 0.05 | 0.05 | 71 | 1020.9 |
| 20260906150541 | 58 | 360 | 11.0 | 19.0 | 0.00 | 0.05 | 0.05 | 71 | 1021.1 |
| 20260906150104 | 58 | 360 | 10.0 | 19.0 | 0.00 | 0.05 | 0.05 | 70 | 1021.3 |
| 20260906145542 | 58 | 360 | 11.0 | 21.0 | 0.00 | 0.05 | 0.05 | 69 | 1021.1 |
| 20260906145041 | 58 | 360 | 11.0 | 21.0 | 0.00 | 0.05 | 0.05 | 69 | 1021.1 |
| 20260906144552 | 58 | 360 | 10.0 | 17.0 | 0.00 | 0.05 | 0.05 | 69 | 1021.3 |
| 20260906144040 | 59 | 360 | 9.0 | 16.0 | 0.00 | 0.05 | 0.05 | 70 | 1021.2 |
| 20260906143601 | 59 | 360 | 8.0 | 14.0 | 0.00 | 0.05 | 0.05 | 70 | 1021.5 |
| 20260906143129 | 59 | 360 | 8.0 | 13.0 | 0.00 | 0.05 | 0.05 | 69 | 1021.9 |
| 20260906142540 | 59 | 360 | 8.0 | 13.0 | 0.00 | 0.05 | 0.05 | 69 | 1022.3 |
| 20260906142041 | 59 | 360 | 8.0 | 13.0 | 0.00 | 0.05 | 0.05 | 70 | 1022.4 |
| 20260906141559 | 59 | 360 | 9.0 | 13.0 | 0.01 | 0.05 | 0.05 | 71 | 1022.4 |
| 20260906141040 | 59 | 360 | 7.0 | 13.0 | 0.02 | 0.05 | 0.05 | 73 | 1022.5 |
| 20260906140541 | 58 | 360 | 5.0 | 10.0 | 0.03 | 0.05 | 0.05 | 75 | 1022.6 |
| 20260906140059 | 58 | 360 | 4.0 | 10.0 | 0.03 | 0.05 | 0.05 | 76 | 1022.6 |
| 20260906135541 | 58 | 360 | 5.0 | 9.0 | 0.03 | 0.05 | 0.05 | 76 | 1022.7 |
| 20260906135045 | 58 | 360 | 5.0 | 9.0 | 0.03 | 0.05 | 0.05 | 77 | 1022.8 |
| 20260906134559 | 58 | 360 | 4.0 | 8.0 | 0.04 | 0.05 | 0.05 | 78 | 1022.9 |
| 20260906134041 | 58 | 360 | 3.0 | 6.0 | 0.04 | 0.05 | 0.05 | 79 | 1023.0 |
| 20260906133543 | 58 | 360 | 2.0 | 5.0 | 0.05 | 0.05 | 0.05 | 79 | 1023.3 |
| 20260906133108 | 58 | 360 | 3.0 | 5.0 | 0.05 | 0.05 | 0.05 | 78 | 1023.2 |
| 20260906132543 | 59 | 360 | 3.0 | 6.0 | 0.05 | 0.05 | 0.05 | 77 | 1023.2 |
| 20260906132040 | 59 | 360 | 3.0 | 9.0 | 0.04 | 0.04 | 0.04 | 75 | 1023.2 |
| 20260906131600 | 60 | 360 | 3.0 | 10.0 | 0.03 | 0.03 | 0.03 | 73 | 1023.0 |
| 20260906131040 | 61 | 360 | 4.0 | 10.0 | 0.03 | 0.03 | 0.03 | 71 | 1023.0 |
| 20260906130543 | 62 | 360 | 5.0 | 10.0 | 0.02 | 0.02 | 0.02 | 69 | 1022.8 |
| 20260906130057 | 62 | 360 | 2.0 | 9.0 | 0.01 | 0.01 | 0.01 | 71 | 1022.7 |
| 20260906125541 | 63 | 360 | 1.0 | 3.0 | 0.01 | 0.01 | 0.01 | 69 | 1022.6 |
| 20260906125041 | 64 | 360 | 1.0 | 3.0 | 0.01 | 0.01 | 0.01 | 65 | 1022.5 |
| 20260906124602 | 65 | 360 | 0.0 | 5.0 | 0.00 | 0.00 | 0.00 | 61 | 1022.5 |
| 20260906124041 | 66 | 0 | 1.0 | 5.0 | 0.00 | 0.00 | 0.00 | 57 | 1022.5 |
| 20260906123540 | 66 | 360 | 2.0 | 6.0 | 0.00 | 0.00 | 0.00 | 54 | 1022.4 |
| 20260906123136 | 67 | 360 | 3.0 | 9.0 | 0.00 | 0.00 | 0.00 | 54 | 1022.3 |
| 20260906122542 | 67 | 360 | 4.0 | 11.0 | 0.00 | 0.00 | 0.00 | 52 | 1022.0 |
| 20260906122042 | 67 | 360 | 4.0 | 11.0 | 0.00 | 0.00 | 0.00 | 51 | 1021.7 |
| 20260906121558 | 67 | 360 | 5.0 | 10.0 | 0.00 | 0.00 | 0.00 | 51 | 1021.6 |
| 20260906121039 | 67 | 360 | 4.0 | 11.0 | 0.00 | 0.00 | 0.00 | 52 | 1021.5 |
| 20260906120543 | 67 | 360 | 5.0 | 11.0 | 0.00 | 0.00 | 0.00 | 51 | 1021.4 |
| 20260906120059 | 67 | 360 | 5.0 | 9.0 | 0.00 | 0.00 | 0.00 | 52 | 1021.3 |
| 20260906115541 | 68 | 360 | 5.0 | 10.0 | 0.00 | 0.00 | 0.00 | 52 | 1021.3 |
| 20260906115042 | 69 | 360 | 5.0 | 11.0 | 0.00 | 0.00 | 0.00 | 47 | 1021.4 |
| 20260906114553 | 69 | 360 | 6.0 | 11.0 | 0.00 | 0.00 | 0.00 | 45 | 1021.3 |
| 20260906114043 | 70 | 360 | 5.0 | 10.0 | 0.00 | 0.00 | 0.00 | 43 | 1021.3 |
| 20260906113543 | 70 | 360 | 5.0 | 10.0 | 0.00 | 0.00 | 0.00 | 42 | 1021.3 |
| 20260906113100 | 70 | 360 | 4.0 | 10.0 | 0.00 | 0.00 | 0.00 | 41 | 1021.3 |
| 20260906112539 | 71 | 360 | 4.0 | 10.0 | 0.00 | 0.00 | 0.00 | 41 | 1021.1 |
| 20260906112043 | 71 | 360 | 6.0 | 10.0 | 0.00 | 0.00 | 0.00 | 38 | 1021.0 |
| 20260906111558 | 71 | 360 | 4.0 | 9.0 | 0.00 | 0.00 | 0.00 | 37 | 1020.8 |
| 20260906111042 | 72 | 360 | 3.0 | 9.0 | 0.00 | 0.00 | 0.00 | 36 | 1020.8 |
| 20260906110543 | 72 | 360 | 4.0 | 10.0 | 0.00 | 0.00 | 0.00 | 35 | 1020.8 |
| 20260906110055 | 72 | 360 | 3.0 | 10.0 | 0.00 | 0.00 | 0.00 | 35 | 1020.7 |
| 20260906105543 | 72 | 360 | 4.0 | 11.0 | 0.00 | 0.00 | 0.00 | 35 | 1020.4 |
| 20260906105043 | 72 | 360 | 3.0 | 11.0 | 0.00 | 0.00 | 0.00 | 35 | 1020.2 |
| 20260906104601 | 72 | 360 | 4.0 | 10.0 | 0.00 | 0.00 | 0.00 | 36 | 1020.0 |
| 20260906104043 | 72 | 360 | 4.0 | 10.0 | 0.00 | 0.00 | 0.00 | 36 | 1019.9 |
| 20260906103543 | 72 | 360 | 5.0 | 9.0 | 0.00 | 0.00 | 0.00 | 36 | 1019.9 |
| 20260906103106 | 72 | 360 | 4.0 | 10.0 | 0.00 | 0.00 | 0.00 | 36 | 1019.8 |
| 20260906102543 | 72 | 360 | 6.0 | 12.0 | 0.00 | 0.00 | 0.00 | 36 | 1019.7 |
| 20260906102042 | 72 | 360 | 5.0 | 14.0 | 0.00 | 0.00 | 0.00 | 36 | 1019.6 |
| 20260906101557 | 72 | 360 | 6.0 | 14.0 | 0.00 | 0.00 | 0.00 | 35 | 1019.4 |
| 20260906101039 | 72 | 360 | 5.0 | 11.0 | 0.00 | 0.00 | 0.00 | 35 | 1019.2 |
| 20260906100546 | 72 | 360 | 6.0 | 11.0 | 0.00 | 0.00 | 0.00 | 35 | 1019.1 |
| 20260906095544 | 72 | 360 | 6.0 | 11.0 | 0.00 | 0.00 | 0.00 | 36 | 1018.8 |
| 20260906095044 | 72 | 360 | 5.0 | 11.0 | 0.00 | 0.00 | 0.00 | 36 | 1018.8 |
| 20260906094607 | 72 | 360 | 5.0 | 11.0 | 0.00 | 0.00 | 0.00 | 37 | 1019.0 |
| 20260906094043 | 73 | 360 | 5.0 | 10.0 | 0.00 | 0.00 | 0.00 | 37 | 1019.0 |
| 20260906093543 | 73 | 360 | 4.0 | 11.0 | 0.00 | 0.00 | 0.00 | 36 | 1019.0 |
| 20260906093101 | 73 | 360 | 6.0 | 11.0 | 0.00 | 0.00 | 0.00 | 36 | 1018.8 |
| 20260906092542 | 73 | 360 | 6.0 | 11.0 | 0.00 | 0.00 | 0.00 | 38 | 1018.7 |
| 20260906092043 | 72 | 360 | 6.0 | 11.0 | 0.00 | 0.00 | 0.00 | 40 | 1018.6 |
| 20260906091608 | 73 | 360 | 5.0 | 9.0 | 0.00 | 0.00 | 0.00 | 41 | 1018.5 |
| 20260906091039 | 73 | 360 | 3.0 | 8.0 | 0.00 | 0.00 | 0.00 | 41 | 1018.4 |
| 20260906090543 | 73 | 360 | 3.0 | 8.0 | 0.00 | 0.00 | 0.00 | 39 | 1018.3 |
| 20260906090057 | 73 | 360 | 3.0 | 8.0 | 0.00 | 0.00 | 0.00 | 39 | 1018.2 |
| 20260906085546 | 73 | 360 | 3.0 | 8.0 | 0.00 | 0.00 | 0.00 | 39 | 1018.3 |
| 20260906085045 | 74 | 360 | 3.0 | 8.0 | 0.00 | 0.00 | 0.00 | 38 | 1018.3 |
| 20260906084605 | 74 | 360 | 3.0 | 8.0 | 0.00 | 0.00 | 0.00 | 37 | 1018.3 |
| 20260906084045 | 74 | 360 | 4.0 | 9.0 | 0.00 | 0.00 | 0.00 | 37 | 1018.2 |
| 20260906083545 | 74 | 360 | 4.0 | 9.0 | 0.00 | 0.00 | 0.00 | 37 | 1018.1 |
| 20260906083106 | 74 | 360 | 3.0 | 9.0 | 0.00 | 0.00 | 0.00 | 37 | 1018.1 |
| 20260906082542 | 74 | 360 | 4.0 | 9.0 | 0.00 | 0.00 | 0.00 | 37 | 1018.1 |
| 20260906082043 | 74 | 360 | 4.0 | 12.0 | 0.00 | 0.00 | 0.00 | 36 | 1018.1 |
| 20260906081559 | 74 | 360 | 5.0 | 12.0 | 0.00 | 0.00 | 0.00 | 36 | 1017.9 |
| 20260906081042 | 74 | 360 | 4.0 | 12.0 | 0.00 | 0.00 | 0.00 | 37 | 1018.0 |
| 20260906080542 | 74 | 360 | 4.0 | 12.0 | 0.00 | 0.00 | 0.00 | 37 | 1018.0 |
| 20260906075543 | 74 | 360 | 3.0 | 10.0 | 0.00 | 0.00 | 0.00 | 38 | 1018.1 |
| 20260906075043 | 74 | 360 | 4.0 | 11.0 | 0.00 | 0.00 | 0.00 | 38 | 1018.0 |
| 20260906074605 | 74 | 360 | 5.0 | 12.0 | 0.00 | 0.00 | 0.00 | 38 | 1018.0 |
| 20260906074039 | 74 | 360 | 5.0 | 12.0 | 0.00 | 0.00 | 0.00 | 39 | 1017.9 |
| 20260906073543 | 74 | 360 | 5.0 | 10.0 | 0.00 | 0.00 | 0.00 | 39 | 1017.9 |
| 20260906073059 | 74 | 360 | 3.0 | 9.0 | 0.00 | 0.00 | 0.00 | 40 | 1018.0 |
| 20260906072543 | 73 | 360 | 4.0 | 9.0 | 0.00 | 0.00 | 0.00 | 41 | 1018.1 |
| 20260906072043 | 73 | 360 | 4.0 | 8.0 | 0.00 | 0.00 | 0.00 | 41 | 1018.1 |
| 20260906071558 | 73 | 134 | 3.0 | 9.0 | 0.00 | 0.00 | 0.00 | 43 | 1018.0 |
| 20260906071041 | 73 | 105 | 2.0 | 9.0 | 0.00 | 0.00 | 0.00 | 43 | 1017.9 |
| 20260906070543 | 73 | 121 | 4.0 | 9.0 | 0.00 | 0.00 | 0.00 | 42 | 1017.9 |
| 20260906070101 | 73 | 0 | 3.0 | 8.0 | 0.00 | 0.00 | 0.00 | 43 | 1018.2 |
| 20260906065543 | 73 | 144 | 2.0 | 9.0 | 0.00 | 0.00 | 0.00 | 45 | 1018.3 |
| 20260906065044 | 73 | 360 | 2.0 | 9.0 | 0.00 | 0.00 | 0.00 | 46 | 1018.5 |
| 20260906064601 | 73 | 360 | 2.0 | 6.0 | 0.00 | 0.00 | 0.00 | 46 | 1018.4 |
| 20260906064043 | 73 | 360 | 2.0 | 5.0 | 0.00 | 0.00 | 0.00 | 45 | 1018.4 |
| 20260906063548 | 74 | 360 | 2.0 | 6.0 | 0.00 | 0.00 | 0.00 | 42 | 1018.9 |
| 20260906063102 | 74 | 360 | 2.0 | 8.0 | 0.00 | 0.00 | 0.00 | 39 | 1019.1 |
| 20260906062543 | 74 | 41 | 4.0 | 9.0 | 0.00 | 0.00 | 0.00 | 37 | 1019.0 |
| 20260906062042 | 75 | 69 | 3.0 | 9.0 | 0.00 | 0.00 | 0.00 | 36 | 1018.8 |
| 20260906061600 | 75 | 73 | 5.0 | 9.0 | 0.00 | 0.00 | 0.00 | 35 | 1018.6 |
| 20260906061039 | 75 | 74 | 4.0 | 11.0 | 0.00 | 0.00 | 0.00 | 36 | 1018.4 |
| 20260906060539 | 75 | 61 | 5.0 | 12.0 | 0.00 | 0.00 | 0.00 | 35 | 1018.3 |
| 20260906060058 | 75 | 70 | 5.0 | 12.0 | 0.00 | 0.00 | 0.00 | 35 | 1018.3 |
| 20260906055543 | 75 | 72 | 5.0 | 10.0 | 0.00 | 0.00 | 0.00 | 35 | 1017.9 |
| 20260906055040 | 75 | 122 | 5.0 | 10.0 | 0.00 | 0.00 | 0.00 | 35 | 1017.8 |
| 20260906054605 | 75 | 135 | 5.0 | 9.0 | 0.00 | 0.00 | 0.00 | 35 | 1017.7 |
| 20260906054043 | 75 | 116 | 4.0 | 9.0 | 0.00 | 0.00 | 0.00 | 36 | 1017.7 |
| 20260906053542 | 75 | 117 | 4.0 | 10.0 | 0.00 | 0.00 | 0.00 | 36 | 1017.7 |
| 20260906053109 | 75 | 108 | 5.0 | 10.0 | 0.00 | 0.00 | 0.00 | 36 | 1017.9 |
| 20260906052548 | 75 | 97 | 6.0 | 12.0 | 0.00 | 0.00 | 0.00 | 35 | 1017.9 |
| 20260906052041 | 75 | 88 | 5.0 | 12.0 | 0.00 | 0.00 | 0.00 | 35 | 1017.8 |
| 20260906051602 | 75 | 98 | 6.0 | 11.0 | 0.00 | 0.00 | 0.00 | 35 | 1017.7 |
| 20260906051039 | 75 | 86 | 4.0 | 10.0 | 0.00 | 0.00 | 0.00 | 36 | 1017.7 |
| 20260906050544 | 75 | 70 | 4.0 | 10.0 | 0.00 | 0.00 | 0.00 | 36 | 1017.8 |
| 20260906050057 | 75 | 84 | 5.0 | 10.0 | 0.00 | 0.00 | 0.00 | 35 | 1017.9 |
| 20260906045543 | 75 | 67 | 5.0 | 10.0 | 0.00 | 0.00 | 0.00 | 36 | 1018.0 |
| 20260906045040 | 75 | 76 | 4.0 | 10.0 | 0.00 | 0.00 | 0.00 | 36 | 1018.1 |
| 20260906044552 | 75 | 61 | 4.0 | 10.0 | 0.00 | 0.00 | 0.00 | 36 | 1018.2 |
| 20260906044043 | 75 | 84 | 4.0 | 10.0 | 0.00 | 0.00 | 0.00 | 35 | 1018.2 |
| 20260906043542 | 75 | 72 | 4.0 | 8.0 | 0.00 | 0.00 | 0.00 | 35 | 1018.1 |
| 20260906043102 | 75 | 103 | 2.0 | 7.0 | 0.00 | 0.00 | 0.00 | 36 | 1018.3 |
| 20260906042543 | 74 | 56 | 3.0 | 8.0 | 0.00 | 0.00 | 0.00 | 36 | 1018.4 |
| 20260906042042 | 75 | 80 | 3.0 | 8.0 | 0.00 | 0.00 | 0.00 | 35 | 1018.6 |
| 20260906041601 | 75 | 73 | 3.0 | 8.0 | 0.00 | 0.00 | 0.00 | 35 | 1018.7 |
| 20260906041043 | 75 | 56 | 3.0 | 9.0 | 0.00 | 0.00 | 0.00 | 35 | 1018.8 |
| 20260906040545 | 75 | 40 | 4.0 | 9.0 | 0.00 | 0.00 | 0.00 | 35 | 1018.8 |
| 20260906040114 | 75 | 89 | 4.0 | 10.0 | 0.00 | 0.00 | 0.00 | 35 | 1018.9 |
| 20260906035543 | 76 | 88 | 4.0 | 10.0 | 0.00 | 0.00 | 0.00 | 34 | 1019.0 |
| 20260906035044 | 76 | 71 | 3.0 | 8.0 | 0.00 | 0.00 | 0.00 | 35 | 1019.0 |
| 20260906034607 | 76 | 86 | 4.0 | 9.0 | 0.00 | 0.00 | 0.00 | 34 | 1019.1 |
| 20260906034042 | 75 | 41 | 3.0 | 9.0 | 0.00 | 0.00 | 0.00 | 35 | 1019.2 |
| 20260906033545 | 75 | 109 | 5.0 | 9.0 | 0.00 | 0.00 | 0.00 | 34 | 1019.2 |
| 20260906033111 | 76 | 96 | 3.0 | 9.0 | 0.00 | 0.00 | 0.00 | 35 | 1019.3 |
| 20260906032542 | 75 | 82 | 3.0 | 8.0 | 0.00 | 0.00 | 0.00 | 35 | 1019.5 |
| 20260906032043 | 75 | 32 | 3.0 | 7.0 | 0.00 | 0.00 | 0.00 | 35 | 1019.7 |
| 20260906031607 | 75 | 51 | 2.0 | 8.0 | 0.00 | 0.00 | 0.00 | 35 | 1019.8 |
| 20260906031043 | 75 | 34 | 3.0 | 9.0 | 0.00 | 0.00 | 0.00 | 35 | 1019.7 |
| 20260906030539 | 74 | 69 | 4.0 | 11.0 | 0.00 | 0.00 | 0.00 | 36 | 1019.7 |
| 20260906025543 | 74 | 40 | 3.0 | 9.0 | 0.00 | 0.00 | 0.00 | 36 | 1019.5 |
| 20260906025045 | 74 | 64 | 4.0 | 9.0 | 0.00 | 0.00 | 0.00 | 36 | 1019.3 |
| 20260906024600 | 74 | 68 | 3.0 | 10.0 | 0.00 | 0.00 | 0.00 | 36 | 1019.3 |
| 20260906024042 | 73 | 71 | 4.0 | 10.0 | 0.00 | 0.00 | 0.00 | 36 | 1019.0 |
| 20260906023547 | 73 | 30 | 5.0 | 10.0 | 0.00 | 0.00 | 0.00 | 37 | 1018.5 |
| 20260906023104 | 73 | 80 | 5.0 | 12.0 | 0.00 | 0.00 | 0.00 | 36 | 1018.4 |
| 20260906022543 | 73 | 56 | 6.0 | 13.0 | 0.00 | 0.00 | 0.00 | 36 | 1018.5 |
| 20260906022045 | 74 | 82 | 5.0 | 14.0 | 0.00 | 0.00 | 0.00 | 37 | 1018.4 |
| 20260906021605 | 73 | 42 | 5.0 | 14.0 | 0.00 | 0.00 | 0.00 | 38 | 1018.4 |
| 20260906021042 | 73 | 360 | 7.0 | 13.0 | 0.00 | 0.00 | 0.00 | 36 | 1018.3 |
| 20260906020542 | 73 | 360 | 6.0 | 14.0 | 0.00 | 0.00 | 0.00 | 37 | 1018.4 |
| 20260906020128 | 74 | 360 | 5.0 | 15.0 | 0.00 | 0.00 | 0.00 | 36 | 1018.3 |
| 20260906015539 | 74 | 59 | 9.0 | 15.0 | 0.00 | 0.00 | 0.00 | 36 | 1018.3 |
| 20260906015043 | 73 | 37 | 7.0 | 15.0 | 0.00 | 0.00 | 0.00 | 37 | 1018.3 |
| 20260906014556 | 72 | 64 | 7.0 | 15.0 | 0.00 | 0.00 | 0.00 | 38 | 1018.3 |
| 20260906014041 | 72 | 57 | 9.0 | 15.0 | 0.00 | 0.00 | 0.00 | 37 | 1018.3 |
| 20260906013547 | 73 | 35 | 8.0 | 17.0 | 0.00 | 0.00 | 0.00 | 37 | 1018.1 |
| 20260906013103 | 72 | 66 | 9.0 | 17.0 | 0.00 | 0.00 | 0.00 | 38 | 1018.1 |
| 20260906012545 | 72 | 78 | 8.0 | 17.0 | 0.00 | 0.00 | 0.00 | 38 | 1018.0 |
| 20260906012040 | 71 | 71 | 10.0 | 17.0 | 0.00 | 0.00 | 0.00 | 39 | 1018.1 |
| 20260906011608 | 71 | 42 | 10.0 | 15.0 | 0.00 | 0.00 | 0.00 | 39 | 1018.1 |
| 20260906011042 | 70 | 59 | 8.0 | 17.0 | 0.00 | 0.00 | 0.00 | 40 | 1018.3 |
| 20260906010543 | 69 | 77 | 10.0 | 17.0 | 0.00 | 0.00 | 0.00 | 40 | 1018.3 |
| 20260906005542 | 68 | 92 | 9.0 | 16.0 | 0.00 | 0.00 | 0.00 | 42 | 1018.5 |
| 20260906005041 | 68 | 51 | 10.0 | 17.0 | 0.00 | 0.00 | 0.00 | 42 | 1018.5 |
| 20260906004612 | 68 | 38 | 9.0 | 17.0 | 0.00 | 0.00 | 0.00 | 43 | 1018.3 |
| 20260906004045 | 67 | 360 | 9.0 | 16.0 | 0.00 | 0.00 | 0.00 | 44 | 1018.2 |
| 20260906003542 | 66 | 360 | 8.0 | 13.0 | 0.00 | 0.00 | 0.00 | 45 | 1018.7 |
| 20260906003106 | 65 | 360 | 6.0 | 13.0 | 0.00 | 0.00 | 0.00 | 46 | 1019.1 |
| 20260906002543 | 65 | 360 | 7.0 | 13.0 | 0.00 | 0.00 | 0.00 | 47 | 1018.9 |
| 20260906002043 | 64 | 360 | 7.0 | 13.0 | 0.00 | 0.00 | 0.00 | 48 | 1018.7 |
| 20260906001602 | 64 | 360 | 5.0 | 14.0 | 0.00 | 0.00 | 0.00 | 48 | 1018.9 |
| 20260906001039 | 64 | 360 | 7.0 | 14.0 | 0.00 | 0.00 | 0.00 | 48 | 1019.2 |
| 20260906000542 | 64 | 360 | 7.0 | 14.0 | 0.00 | 0.00 | 0.00 | 48 | 1018.9 |
| 20260905235540 | 63 | 360 | 9.0 | 16.0 | 0.00 | 0.00 | 0.00 | 49 | 1019.1 |
| 20260905235043 | 63 | 360 | 6.0 | 16.0 | 0.00 | 0.00 | 0.00 | 50 | 1019.1 |
| 20260905234557 | 62 | 360 | 9.0 | 17.0 | 0.00 | 0.00 | 0.00 | 51 | 1018.9 |
| 20260905234042 | 61 | 360 | 8.0 | 17.0 | 0.00 | 0.00 | 0.00 | 52 | 1018.7 |
| 20260905233542 | 61 | 360 | 8.0 | 17.0 | 0.00 | 0.00 | 0.00 | 52 | 1018.6 |
| 20260905233103 | 61 | 360 | 9.0 | 16.0 | 0.00 | 0.00 | 0.00 | 52 | 1018.4 |
| 20260905232542 | 61 | 360 | 8.0 | 16.0 | 0.00 | 0.00 | 0.00 | 53 | 1018.3 |
| 20260905232042 | 61 | 360 | 8.0 | 16.0 | 0.00 | 0.00 | 0.00 | 53 | 1018.4 |
| 20260905231600 | 60 | 360 | 9.0 | 16.0 | 0.00 | 0.00 | 0.00 | 54 | 1018.3 |
| 20260905231043 | 60 | 360 | 9.0 | 15.0 | 0.00 | 0.00 | 0.00 | 54 | 1018.3 |
| 20260905230540 | 59 | 360 | 9.0 | 16.0 | 0.00 | 0.00 | 0.00 | 56 | 1018.3 |
| 20260905225543 | 58 | 360 | 9.0 | 16.0 | 0.00 | 0.00 | 0.00 | 58 | 1018.1 |
| 20260905225042 | 57 | 360 | 8.0 | 16.0 | 0.00 | 0.00 | 0.00 | 59 | 1018.0 |
| 20260905224603 | 57 | 360 | 9.0 | 13.0 | 0.00 | 0.00 | 0.00 | 60 | 1018.1 |
| 20260905224043 | 56 | 360 | 7.0 | 13.0 | 0.00 | 0.00 | 0.00 | 60 | 1018.1 |
| 20260905223548 | 56 | 360 | 6.0 | 13.0 | 0.00 | 0.00 | 0.00 | 61 | 1018.0 |
| 20260905223100 | 55 | 360 | 8.0 | 13.0 | 0.00 | 0.00 | 0.00 | 62 | 1018.0 |
| 20260905222544 | 55 | 360 | 6.0 | 11.0 | 0.00 | 0.00 | 0.00 | 63 | 1018.1 |
| 20260905222042 | 55 | 360 | 5.0 | 11.0 | 0.00 | 0.00 | 0.00 | 64 | 1018.1 |
| 20260905221557 | 54 | 360 | 4.0 | 11.0 | 0.00 | 0.00 | 0.00 | 65 | 1018.2 |
| 20260905221039 | 54 | 360 | 6.0 | 11.0 | 0.00 | 0.00 | 0.00 | 66 | 1018.0 |
| 20260905220542 | 53 | 360 | 5.0 | 11.0 | 0.00 | 0.00 | 0.00 | 66 | 1018.0 |
| 20260905220106 | 53 | 360 | 5.0 | 9.0 | 0.00 | 0.00 | 0.00 | 67 | 1018.2 |
| 20260905215542 | 52 | 360 | 5.0 | 9.0 | 0.00 | 0.00 | 0.00 | 67 | 1018.2 |
| 20260905215042 | 52 | 360 | 5.0 | 10.0 | 0.00 | 0.00 | 0.00 | 68 | 1018.3 |
| 20260905214603 | 52 | 360 | 6.0 | 10.0 | 0.00 | 0.00 | 0.00 | 67 | 1018.2 |
| 20260905214042 | 52 | 360 | 5.0 | 11.0 | 0.00 | 0.00 | 0.00 | 67 | 1018.1 |
| 20260905213543 | 52 | 360 | 6.0 | 13.0 | 0.00 | 0.00 | 0.00 | 67 | 1018.0 |
| 20260905213102 | 52 | 360 | 6.0 | 13.0 | 0.00 | 0.00 | 0.00 | 67 | 1017.9 |
| 20260905212543 | 52 | 360 | 7.0 | 13.0 | 0.00 | 0.00 | 0.00 | 68 | 1018.0 |
| 20260905212041 | 52 | 360 | 6.0 | 11.0 | 0.00 | 0.00 | 0.00 | 68 | 1018.0 |
| 20260905211600 | 52 | 360 | 5.0 | 12.0 | 0.00 | 0.00 | 0.00 | 68 | 1017.9 |
| 20260905211043 | 52 | 360 | 6.0 | 12.0 | 0.00 | 0.00 | 0.00 | 68 | 1018.0 |
| 20260905210542 | 52 | 360 | 5.0 | 10.0 | 0.00 | 0.00 | 0.00 | 68 | 1018.0 |
| 20260905210123 | 52 | 360 | 5.0 | 10.0 | 0.00 | 0.00 | 0.00 | 68 | 1018.2 |
| 20260905205542 | 51 | 360 | 4.0 | 10.0 | 0.00 | 0.00 | 0.00 | 68 | 1018.2 |
| 20260905205042 | 51 | 360 | 5.0 | 10.0 | 0.00 | 0.00 | 0.00 | 68 | 1018.0 |
| 20260905204604 | 51 | 360 | 4.0 | 10.0 | 0.00 | 0.00 | 0.00 | 68 | 1018.1 |
| 20260905204041 | 51 | 360 | 5.0 | 9.0 | 0.00 | 0.00 | 0.00 | 68 | 1018.0 |
| 20260905203543 | 52 | 360 | 4.0 | 8.0 | 0.00 | 0.00 | 0.00 | 67 | 1018.1 |
| 20260905203058 | 52 | 360 | 4.0 | 9.0 | 0.00 | 0.00 | 0.00 | 67 | 1018.2 |
| 20260905202543 | 52 | 360 | 4.0 | 9.0 | 0.00 | 0.00 | 0.00 | 67 | 1018.1 |
| 20260905202039 | 52 | 360 | 4.0 | 9.0 | 0.00 | 0.00 | 0.00 | 66 | 1018.1 |
| 20260905201557 | 52 | 360 | 5.0 | 10.0 | 0.00 | 0.00 | 0.00 | 67 | 1018.1 |
| 20260905201040 | 52 | 360 | 5.0 | 10.0 | 0.00 | 0.00 | 0.00 | 67 | 1018.1 |
| 20260905200543 | 52 | 360 | 3.0 | 6.0 | 0.00 | 0.00 | 0.00 | 67 | 1018.2 |
| 20260905200112 | 52 | 360 | 3.0 | 6.0 | 0.00 | 0.00 | 0.00 | 67 | 1018.2 |
| 20260905195540 | 52 | 360 | 3.0 | 6.0 | 0.00 | 0.00 | 0.00 | 67 | 1018.2 |
| 20260905195042 | 52 | 360 | 3.0 | 6.0 | 0.00 | 0.00 | 0.00 | 68 | 1018.2 |